When you browse on this site, cookies collect data to enhance your experience and personalize the content and advertising you see.
Visit our Privacy Policy to learn more. By continuing to use the site, you agree to this use of cookies and data.
  • în România
  • Lista ţărilor
  • Pe 7 zile
  • Temperatura apei
  • Hartă satelitară
  • Meteo pe hartă
  • Widget-uri
  • user-avatar
    Intrare

    Meteo pe oră la Arnedo

    Astăzi, 17 Februarie, Duminică

    Timp Temperatura Precipitaţii Vânt Presiune Umiditate
    00:00 +5°C° 0 mm 3 m/s 709 mmHg 43%
    01:00 +5°C° 0 mm 3 m/s 709 mmHg 44%
    02:00 +4°C° 0 mm 3 m/s 708 mmHg 45%
    03:00 +4°C° 0 mm 3 m/s 708 mmHg 46%
    04:00 +4°C° 0 mm 3 m/s 708 mmHg 46%
    05:00 +3°C° 0 mm 3 m/s 708 mmHg 46%
    06:00 +3°C° 0 mm 3 m/s 708 mmHg 45%
    07:00 +4°C° 0 mm 3 m/s 708 mmHg 42%
    08:00 +5°C° 0 mm 3 m/s 708 mmHg 39%
    09:00 +8°C° 0 mm 3 m/s 708 mmHg 35%
    10:00 +8°C° 0 mm 4 m/s 708 mmHg 31%
    11:00 +11°C° 0 mm 4 m/s 708 mmHg 27%
    12:00 +13°C° 0 mm 5 m/s 708 mmHg 24%
    13:00 +14°C° 0 mm 5 m/s 707 mmHg 23%
    14:00 +14°C° 0 mm 6 m/s 707 mmHg 23%
    15:00 +15°C° 0 mm 6 m/s 706 mmHg 23%
    16:00 +13°C° 0 mm 5 m/s 706 mmHg 29%
    17:00 +10°C° 0 mm 5 m/s 705 mmHg 35%
    18:00 +8°C° 0 mm 4 m/s 705 mmHg 42%
    19:00 +7°C° 0 mm 4 m/s 705 mmHg 46%
    20:00 +8°C° 0 mm 3 m/s 705 mmHg 51%
    21:00 +7°C° 0 mm 3 m/s 706 mmHg 55%
    22:00 +7°C° 0 mm 3 m/s 706 mmHg 58%
    23:00 +5°C° 0 mm 3 m/s 706 mmHg 61%

    Mâine, 18 Februarie, Luni

    Timp Temperatura Precipitaţii Vânt Presiune Umiditate
    00:00 +5°C° 0 mm 3 m/s 706 mmHg 65%
    01:00 +4°C° 0 mm 3 m/s 705 mmHg 67%
    02:00 +4°C° 0 mm 3 m/s 705 mmHg 70%
    03:00 +3°C° 0 mm 3 m/s 705 mmHg 73%
    04:00 +3°C° 0 mm 3 m/s 705 mmHg 75%
    05:00 +4°C° 0 mm 2 m/s 705 mmHg 76%
    06:00 +3°C° 0 mm 2 m/s 705 mmHg 78%
    07:00 +4°C° 0 mm 2 m/s 705 mmHg 74%
    08:00 +5°C° 0 mm 3 m/s 705 mmHg 69%
    09:00 +7°C° 0 mm 3 m/s 705 mmHg 65%
    10:00 +8°C° 0 mm 3 m/s 705 mmHg 59%
    11:00 +10°C° 0 mm 4 m/s 705 mmHg 53%
    12:00 +11°C° 0 mm 4 m/s 705 mmHg 47%
    13:00 +12°C° 0 mm 4 m/s 705 mmHg 44%
    14:00 +12°C° 0 mm 4 m/s 705 mmHg 42%
    15:00 +13°C° 0 mm 5 m/s 704 mmHg 39%
    16:00 +11°C° 0 mm 4 m/s 704 mmHg 46%
    17:00 +10°C° 0 mm 3 m/s 704 mmHg 52%
    18:00 +9°C° 0 mm 2 m/s 704 mmHg 58%
    19:00 +8°C° 0 mm 2 m/s 705 mmHg 61%
    20:00 +7°C° 0 mm 2 m/s 705 mmHg 64%
    21:00 +8°C° 0 mm 1 m/s 706 mmHg 67%
    22:00 +7°C° 0 mm 1 m/s 706 mmHg 70%
    23:00 +7°C° 0 mm 1 m/s 706 mmHg 73%

    Poimâine, 19 Februarie, Marţi

    Timp Temperatura Precipitaţii Vânt Presiune Umiditate
    00:00 +6°C° 0 mm 1 m/s 706 mmHg 76%
    01:00 +4°C° 0 mm 0 m/s 706 mmHg 77%
    02:00 +4°C° 0 mm 0 m/s 706 mmHg 79%
    03:00 +3°C° 0 mm 0 m/s 706 mmHg 80%
    04:00 +3°C° 0 mm 0 m/s 706 mmHg 80%
    05:00 +3°C° 0 mm 0 m/s 706 mmHg 80%
    06:00 +2°C° 0 mm 0 m/s 706 mmHg 81%
    07:00 +4°C° 0 mm 0 m/s 706 mmHg 74%
    08:00 +5°C° 0 mm 0 m/s 707 mmHg 67%
    09:00 +7°C° 0 mm 0 m/s 707 mmHg 61%
    10:00 +9°C° 0 mm 1 m/s 707 mmHg 57%
    11:00 +10°C° 0 mm 1 m/s 707 mmHg 52%
    12:00 +12°C° 0 mm 2 m/s 707 mmHg 48%
    13:00 +12°C° 0 mm 2 m/s 707 mmHg 46%
    14:00 +12°C° 0 mm 3 m/s 706 mmHg 44%
    15:00 +12°C° 0 mm 3 m/s 706 mmHg 41%
    16:00 +12°C° 0 mm 2 m/s 706 mmHg 46%
    17:00 +9°C° 0 mm 2 m/s 706 mmHg 50%
    18:00 +9°C° 0 mm 1 m/s 706 mmHg 55%
    19:00 +8°C° 0 mm 1 m/s 706 mmHg 56%
    20:00 +8°C° 0 mm 1 m/s 706 mmHg 58%
    21:00 +7°C° 0 mm 1 m/s 707 mmHg 59%
    22:00 +7°C° 0 mm 1 m/s 707 mmHg 60%
    23:00 +6°C° 0 mm 1 m/s 707 mmHg 61%

    20 Februarie, Miercuri

    Timp Temperatura Precipitaţii Vânt Presiune Umiditate
    00:00 +6°C° 0 mm 1 m/s 707 mmHg 61%
    01:00 +6°C° 0 mm 1 m/s 707 mmHg 63%
    02:00 +5°C° 0 mm 1 m/s 707 mmHg 64%
    03:00 +5°C° 0 mm 1 m/s 707 mmHg 66%
    04:00 +4°C° 0 mm 1 m/s 707 mmHg 69%
    05:00 +4°C° 0 mm 1 m/s 707 mmHg 72%
    06:00 +4°C° 0 mm 1 m/s 707 mmHg 75%
    07:00 +5°C° 0 mm 1 m/s 708 mmHg 70%
    08:00 +7°C° 0 mm 1 m/s 708 mmHg 65%
    09:00 +8°C° 0 mm 1 m/s 709 mmHg 60%
    10:00 +10°C° 0 mm 1 m/s 709 mmHg 56%
    11:00 +10°C° 0 mm 2 m/s 709 mmHg 53%
    12:00 +13°C° 0 mm 2 m/s 709 mmHg 49%
    13:00 +13°C° 0 mm 2 m/s 709 mmHg 48%
    14:00 +14°C° 0 mm 2 m/s 709 mmHg 46%
    15:00 +13°C° 0 mm 3 m/s 708 mmHg 45%
    16:00 +13°C° 0 mm 2 m/s 708 mmHg 50%
    17:00 +10°C° 0 mm 2 m/s 708 mmHg 55%
    18:00 +10°C° 0 mm 1 m/s 708 mmHg 61%
    19:00 +9°C° 0 mm 1 m/s 709 mmHg 62%
    20:00 +8°C° 0 mm 1 m/s 709 mmHg 63%
    21:00 +8°C° 0 mm 1 m/s 710 mmHg 64%
    22:00 +7°C° 0 mm 1 m/s 710 mmHg 64%
    23:00 +7°C° 0 mm 1 m/s 710 mmHg 65%

    21 Februarie, Joi

    Timp Temperatura Precipitaţii Vânt Presiune Umiditate
    00:00 +7°C° 0 mm 1 m/s 710 mmHg 65%
    01:00 +6°C° 0 mm 1 m/s 710 mmHg 68%
    02:00 +6°C° 0 mm 1 m/s 710 mmHg 70%
    03:00 +5°C° 0 mm 1 m/s 710 mmHg 72%
    04:00 +5°C° 0 mm 1 m/s 710 mmHg 75%
    05:00 +5°C° 0 mm 1 m/s 710 mmHg 77%
    06:00 +4°C° 0 mm 1 m/s 710 mmHg 79%
    07:00 +6°C° 0 mm 1 m/s 710 mmHg 73%
    08:00 +7°C° 0 mm 1 m/s 711 mmHg 66%
    09:00 +7°C° 0 mm 2 m/s 711 mmHg 60%
    10:00 +9°C° 0 mm 2 m/s 711 mmHg 54%
    11:00 +12°C° 0 mm 2 m/s 712 mmHg 48%
    12:00 +12°C° 0 mm 3 m/s 712 mmHg 43%
    13:00 +13°C° 0 mm 3 m/s 712 mmHg 40%
    14:00 +14°C° 0 mm 3 m/s 711 mmHg 37%
    15:00 +14°C° 0 mm 4 m/s 711 mmHg 34%
    16:00 +13°C° 0 mm 3 m/s 711 mmHg 38%
    17:00 +11°C° 0 mm 3 m/s 711 mmHg 42%
    18:00 +9°C° 0 mm 2 m/s 711 mmHg 47%
    19:00 +8°C° 0 mm 2 m/s 712 mmHg 48%
    20:00 +8°C° 0 mm 2 m/s 712 mmHg 49%
    21:00 +8°C° 0 mm 1 m/s 712 mmHg 51%
    22:00 +7°C° 0 mm 1 m/s 712 mmHg 52%
    23:00 +7°C° 0 mm 1 m/s 712 mmHg 54%

    22 Februarie, Vineri

    Timp Temperatura Precipitaţii Vânt Presiune Umiditate
    00:00 +6°C° 0 mm 1 m/s 712 mmHg 56%
    01:00 +6°C° 0 mm 1 m/s 712 mmHg 57%
    02:00 +6°C° 0 mm 1 m/s 712 mmHg 59%
    03:00 +5°C° 0 mm 1 m/s 712 mmHg 61%
    04:00 +5°C° 0 mm 1 m/s 712 mmHg 63%
    05:00 +5°C° 0 mm 1 m/s 712 mmHg 65%
    06:00 +5°C° 0 mm 1 m/s 712 mmHg 67%
    07:00 +6°C° 0 mm 1 m/s 712 mmHg 60%
    08:00 +8°C° 0 mm 1 m/s 713 mmHg 53%
    09:00 +10°C° 0 mm 1 m/s 713 mmHg 46%
    10:00 +12°C° 0 mm 1 m/s 713 mmHg 42%
    11:00 +14°C° 0 mm 1 m/s 713 mmHg 37%
    12:00 +16°C° 0 mm 1 m/s 713 mmHg 32%
    13:00 +16°C° 0 mm 1 m/s 713 mmHg 31%
    14:00 +17°C° 0 mm 2 m/s 712 mmHg 29%
    15:00 +18°C° 0 mm 2 m/s 712 mmHg 28%
    16:00 +15°C° 0 mm 1 m/s 712 mmHg 36%
    17:00 +13°C° 0 mm 1 m/s 711 mmHg 44%
    18:00 +10°C° 0 mm 0 m/s 711 mmHg 52%
    19:00 +10°C° 0 mm 1 m/s 711 mmHg 51%
    20:00 +10°C° 0 mm 1 m/s 711 mmHg 50%
    21:00 +10°C° 0 mm 1 m/s 712 mmHg 49%
    22:00 +9°C° 0 mm 1 m/s 711 mmHg 49%
    23:00 +9°C° 0 mm 1 m/s 711 mmHg 48%
    Arată mai mult